FW5469 Weather Reports


Display with metric or nautical units.
time (UTC)temp
F
wind
direction
speed
MPH
gust
MPH
rain 1hr
in
rain 24hr
in
rain mn
in
humidity
%
barometer
mb
20260905043100 69 0 0.0 0.0 0.00 0.19 0.00 95 1013.8
20260905041607 69 0 0.0 0.0 0.00 0.19 0.00 95 1013.8
20260905040106 69 0 0.0 0.0 0.00 0.19 0.00 95 1013.8
20260905034615 69 0 0.0 0.0 0.00 0.22 0.19 94 1013.9
20260905033105 69 0 0.0 0.0 0.00 0.22 0.19 95 1013.8
20260905031608 69 0 0.0 0.0 0.00 0.22 0.19 94 1013.8
20260905030106 69 0 0.0 0.0 0.00 0.22 0.19 94 1013.7
20260905024605 70 0 0.0 0.0 0.00 0.22 0.19 94 1013.7
20260905023104 70 0 0.0 0.0 0.00 0.22 0.19 94 1013.9
20260905021603 70 0 0.0 0.0 0.00 0.22 0.19 94 1013.9
20260905020105 71 0 0.0 0.0 0.00 0.22 0.19 94 1013.8
20260905014607 71 0 0.0 0.0 0.00 0.22 0.19 94 1013.8
20260905013103 71 0 0.0 0.0 0.00 0.22 0.19 93 1013.8
20260905011602 71 0 0.0 0.0 0.00 0.22 0.19 93 1014.0
20260905010107 71 0 0.0 0.0 0.00 0.22 0.19 93 1013.8
20260905004637 72 0 0.0 0.0 0.00 0.23 0.19 92 1013.7
20260905003102 72 0 0.0 0.0 0.00 0.23 0.19 92 1013.6
20260905001605 73 0 0.0 0.0 0.00 0.23 0.19 91 1013.9
20260905000109 74 0 0.0 1.0 0.00 0.23 0.19 90 1013.7
20260904234607 75 0 0.0 0.0 0.00 0.30 0.19 89 1013.8
20260904233100 75 0 0.0 0.0 0.00 0.30 0.19 88 1013.8
20260904231604 75 0 0.0 1.0 0.00 0.30 0.19 88 1014.0
20260904230129 76 0 0.0 1.0 0.00 0.30 0.19 87 1013.5
20260904224603 76 0 0.0 2.0 0.00 1.65 0.19 86 1013.8
20260904223107 77 283 0.0 2.0 0.00 1.65 0.19 84 1013.7
20260904221610 76 0 0.0 0.0 0.00 1.65 0.19 84 1013.4
20260904220110 76 0 0.0 0.0 0.00 1.65 0.19 85 1013.4
20260904214606 77 0 0.0 0.0 0.00 1.77 0.19 86 1013.0
20260904213105 77 0 0.0 0.0 0.00 1.77 0.19 87 1013.0
20260904211602 76 0 0.0 0.0 0.00 1.77 0.19 88 1012.6
20260904210109 75 0 0.0 0.0 0.00 1.77 0.19 90 1012.5
20260904204608 75 0 0.0 0.0 0.00 1.77 0.19 89 1012.1
20260904203109 75 0 0.0 1.0 0.00 1.77 0.19 91 1012.1
20260904201607 75 219 0.0 6.0 0.00 1.77 0.19 92 1012.4
20260904200109 74 147 1.0 3.0 0.00 1.77 0.19 94 1012.8
20260904194610 74 164 1.0 3.0 0.00 1.77 0.19 95 1013.5
20260904193105 74 210 0.0 3.0 0.00 1.77 0.19 96 1013.6
20260904191603 73 233 0.0 3.0 0.00 1.77 0.19 96 1013.7
20260904190111 72 237 0.0 3.0 0.00 1.77 0.19 96 1014.2
20260904184610 72 202 0.0 3.0 0.01 1.77 0.19 96 1014.3
20260904183115 72 0 1.0 5.0 0.01 1.77 0.19 96 1014.0
20260904181607 72 184 0.0 1.0 0.01 1.77 0.19 96 1014.5
20260904180113 72 141 0.0 2.0 0.01 1.77 0.19 96 1014.9
20260904174608 72 309 1.0 5.0 0.00 1.76 0.18 96 1016.3
20260904173107 72 316 1.0 4.0 0.00 1.76 0.18 97 1016.5
20260904171602 72 0 0.0 4.0 0.02 1.76 0.18 97 1016.1
20260904170109 72 319 1.0 2.0 0.03 1.76 0.18 97 1016.2
20260904164607 71 335 1.0 5.0 0.03 1.76 0.18 97 1016.7
20260904163109 71 41 1.0 4.0 0.03 1.76 0.18 97 1016.4
20260904161607 71 278 1.0 5.0 0.01 1.74 0.16 97 1016.5
20260904160109 71 323 1.0 4.0 0.00 1.73 0.15 97 1016.7
20260904154605 71 18 2.0 4.0 0.00 1.73 0.15 97 1016.7
20260904153109 71 0 0.0 2.0 0.01 1.73 0.15 97 1016.4
20260904151601 71 0 0.0 3.0 0.05 1.73 0.15 97 1015.3
20260904150110 70 0 1.0 2.0 0.08 1.73 0.15 97 1015.1
20260904144606 70 0 0.0 0.0 0.10 1.73 0.15 97 1015.7
20260904143105 69 0 0.0 0.0 0.11 1.72 0.14 97 1015.9
20260904141606 69 0 0.0 0.0 0.09 1.68 0.10 97 1016.0
20260904140110 69 0 0.0 0.0 0.06 1.65 0.07 97 1016.1
20260904134608 69 0 0.0 0.0 0.04 1.63 0.05 97 1016.2
20260904133105 69 0 0.0 0.0 0.02 1.61 0.03 97 1016.2
20260904131608 69 0 0.0 0.0 0.00 1.59 0.01 97 1016.2
20260904130108 69 0 0.0 0.0 0.00 1.59 0.01 97 1015.6
20260904124608 68 0 0.0 0.0 0.00 1.59 0.01 97 1015.7
20260904123106 68 0 0.0 0.0 0.00 1.59 0.01 97 1015.5
20260904121602 68 0 0.0 0.0 0.00 1.59 0.01 97 1015.2
20260904120113 68 0 0.0 0.0 0.00 1.59 0.01 97 1015.3
20260904114609 67 0 0.0 0.0 0.00 1.59 0.01 97 1015.2
20260904113107 67 0 0.0 0.0 0.00 1.59 0.01 97 1015.3
20260904111604 67 0 0.0 0.0 0.00 1.59 0.01 97 1015.1
20260904110118 67 0 0.0 0.0 0.00 1.59 0.01 97 1015.0
20260904104608 67 0 0.0 0.0 0.00 1.59 0.01 97 1014.6
20260904103105 67 0 0.0 0.0 0.00 1.59 0.01 97 1014.8
20260904101610 67 0 0.0 0.0 0.00 1.59 0.01 96 1014.6
20260904100108 67 0 0.0 0.0 0.00 1.59 0.01 96 1014.3
20260904094607 67 0 0.0 0.0 0.00 1.59 0.01 96 1014.9
20260904093113 67 0 0.0 0.0 0.00 1.59 0.01 96 1014.9
20260904091602 67 0 0.0 0.0 0.00 1.59 0.01 96 1014.7
20260904090104 67 0 0.0 0.0 0.00 1.59 0.01 96 1014.6
20260904084605 67 0 0.0 0.0 0.00 1.59 0.01 96 1014.7
20260904083105 67 0 0.0 0.0 0.00 1.59 0.01 96 1014.5
20260904081605 67 0 0.0 1.0 0.00 1.59 0.01 96 1014.5
20260904080107 67 0 0.0 0.0 0.00 1.59 0.01 96 1014.8
20260904074606 67 0 0.0 0.0 0.00 1.59 0.01 96 1014.9
20260904073107 67 0 0.0 0.0 0.00 1.59 0.01 96 1014.9
20260904071606 67 0 0.0 1.0 0.00 1.59 0.01 96 1015.1
20260904070110 67 0 0.0 0.0 0.00 1.59 0.01 96 1015.0
20260904064605 67 0 0.0 1.0 0.00 1.59 0.01 96 1014.9
20260904063124 67 50 0.0 0.0 0.00 1.59 0.01 96 1015.0
20260904061601 67 0 0.0 1.0 0.00 1.59 0.01 96 1015.1
20260904060104 67 0 0.0 1.0 0.01 1.59 0.01 96 1014.9
20260904054605 67 50 0.0 0.0 0.01 1.59 0.01 96 1014.9
20260904053106 67 0 0.0 0.0 0.01 1.59 0.01 96 1015.0
20260904051623 67 49 0.0 1.0 0.01 1.59 0.01 96 1014.9
20260904050110 68 353 0.0 1.0 0.00 1.58 0.00 96 1015.0
20260904044605 68 33 0.0 1.0 0.00 1.58 0.00 96 1015.1